Weather in St Albans

United Kingdom     51°45′02″N   0°20′23″E
temp.,
°C
wind,
m/s
gust,
m/s
humid.,
%
clouds,
%
prec.,
mm/h
press.,
hPa
HPBL,
m
8 may, sat
sat801:00+5sse3575100 0.1 1014105
04:00+6se41168100 0.1 1011371
07:00+7se61498100 5.6 1007573
10:00+10s81798100 6.6 10031125
13:00+13ssw91792100 6.8 10021014
16:00+15sw91784100 0.0 10021132
19:00+15ssw91778100 0.0 10021198
22:00+12ssw616850 0.0 1001811
9 may, sun
sun901:00+12ssw616820 0.0 1000670
04:00+11s616860 0.0 998489
07:00+11s514821 0.0 997515
10:00+16ssw7127188 0.0 9971054
13:00+18ssw91663100 0.0 9961747
16:00+18ssw81564100 0.1 9961727
19:00+13sw4877100 0.3 997454
22:00+13s4868100 0.0 997386
10 may, mon
mon1001:00+11ssw4973100 0.0 997464
04:00+10s51087100 0.0 997503
07:00+10ssw61182100 0.0 998954
10:00+11ssw7137551 0.1 9991346
13:00+14ssw10146422 0.4 10011763
16:00+15sw914565 0.3 10021829
19:00+12ssw712640 0.3 10041112
22:00+9s49746 0.0 1006299
11 may, tue
tue1101:00+7s34875 0.0 100789
04:00+7sse229020 0.0 100620
07:00+8se368662 0.0 1007198
10:00+13s45635 0.0 10071170
13:00+16s574999 0.0 10062055
16:00+14s5760100 0.4 1006928
19:00+12sse4771100 0.9 1007393
22:00+8se358897 0.0 100796
12 may, wed
wed1201:00+7se34935 0.2 100790
04:00+6ssw35976 0.0 1007125
07:00+7sw479557 0.0 1007278
10:00+9sw5787100 0.0 1008620
13:00+12sw587398 0.0 10081134
16:00+15sw795538 0.4 10071862
19:00+13sw58716 0.5 1008929
22:00+9ssw49845 0.0 1009271